Weather History for KTWM - May, 2013

Change the Weather History Date:

Saturday, May 18, 2013

  Actual Average Record
Temperature  
Mean Temperature 48 °F -  
Max Temperature 53 °F 60 °F 87 °F (1955)
Min Temperature 42 °F 39 °F 3 °F (2000)
Degree Days  
Heating Degree Days 18    
Moisture  
Dew Point 43 °F    
Average Humidity 80    
Maximum Humidity 88    
Minimum Humidity 62    
Precipitation  
Precipitation 0.48 in - - ()
Sea Level Pressure  
Sea Level Pressure 29.96 in    
Wind  
Wind Speed 6 mph (NE)    
Max Wind Speed 10 mph    
Max Gust Speed -    
Visibility 6 miles    
Events Rain , Thunderstorm    
Averages and records for this station are not official NWS values.
T = Trace of Precipitation, MM = Missing Value Source: NWS Daily Summary

Daily Weather History Graph

Daily Weather History Graph

Search for Another Location

Airport or City:

Trip Planner

Search our weather history database for the weather conditions in past years. The results will help you decide how hot, cold, wet, or windy it might be!

Date:

Astronomy

May. 18, 2013 Rise Set
Actual Time 5:27 AM CDT 8:39 PM CDT
Civil Twilight 4:51 AM CDT 9:16 PM CDT
Nautical Twilight 4:03 AM CDT 10:04 PM CDT
Astronomical Twilight 3:04 AM CDT 11:04 PM CDT
Moon 1:17 PM CDT (5/18) 1:48 AM CDT (5/18)
Length of Visible Light 16h 25m
Length of Day
15h 12m
First Quarter, 55% of the Moon is Illuminated
May 18
First Quarter
May 24
Full
May 31
Last Quarter
Jun 8
New
Jun 16
First Quarter

Hourly Weather History & Observations

Time (CDT) Temp. Windchill Dew Point Humidity Pressure Visibility Wind Dir Wind Speed Gust Speed Precip Events Conditions
12:11 AM 46.4 °F 42.4 °F 33.8 °F 62% 30.05 in 10.0 mi NE 8.1 mph - N/A   Mostly Cloudy
12:32 AM 46.4 °F 42.9 °F 33.8 °F 62% 30.05 in 10.0 mi ENE 6.9 mph - N/A   Overcast
12:51 AM 46.4 °F 41.5 °F 33.8 °F 62% 30.04 in 10.0 mi ENE 10.4 mph - N/A   Overcast
1:11 AM 46.4 °F 41.9 °F 33.8 °F 62% 30.03 in 10.0 mi ENE 9.2 mph - N/A   Overcast
1:32 AM 46.4 °F 44.3 °F 35.6 °F 66% 30.03 in 10.0 mi NE 4.6 mph - N/A   Overcast
1:51 AM 46.4 °F 43.5 °F 35.6 °F 66% 30.02 in 10.0 mi ENE 5.8 mph - N/A   Overcast
2:11 AM 44.6 °F 41.4 °F 35.6 °F 71% 30.02 in 10.0 mi NE 5.8 mph - N/A   Scattered Clouds
2:32 AM 44.6 °F 41.4 °F 35.6 °F 71% 30.01 in 10.0 mi NE 5.8 mph - N/A   Scattered Clouds
2:51 AM 44.6 °F 41.4 °F 35.6 °F 71% 30.01 in 10.0 mi NE 5.8 mph - N/A   Mostly Cloudy
3:11 AM 46.4 °F 45.2 °F 35.6 °F 66% 30.01 in 10.0 mi ENE 3.5 mph - N/A   Overcast
3:32 AM 46.4 °F 44.3 °F 35.6 °F 66% 30.01 in 10.0 mi ENE 4.6 mph - N/A   Overcast
3:51 AM 46.4 °F - 37.4 °F 71% 30.01 in 5.0 mi Calm Calm - 0.02 in Rain Heavy Rain
4:11 AM 42.8 °F 39.3 °F 39.2 °F 87% 30.01 in 10.0 mi NE 5.8 mph - 0.05 in Rain Light Rain
4:32 AM 44.6 °F 43.1 °F 39.2 °F 81% 30.01 in 10.0 mi NE 3.5 mph - 0.06 in   Drizzle
4:51 AM 44.6 °F 42.2 °F 39.2 °F 81% 30.00 in 10.0 mi NE 4.6 mph - 0.06 in   Drizzle
5:11 AM 44.6 °F 42.2 °F 39.2 °F 81% 30.00 in 10.0 mi NE 4.6 mph - N/A   Drizzle
5:32 AM 44.6 °F 43.1 °F 39.2 °F 81% 30.01 in 10.0 mi NE 3.5 mph - N/A   Drizzle
5:51 AM 44.6 °F 42.2 °F 39.2 °F 81% 30.00 in 10.0 mi NE 4.6 mph - N/A   Light Drizzle
6:11 AM 44.6 °F 40.7 °F 39.2 °F 81% 29.99 in 10.0 mi NE 6.9 mph - N/A   Overcast
6:32 AM 44.6 °F 41.4 °F 39.2 °F 81% 30.00 in 10.0 mi NE 5.8 mph - N/A   Overcast
6:51 AM 44.6 °F 41.4 °F 39.2 °F 81% 30.01 in 10.0 mi NE 5.8 mph - N/A   Overcast
7:11 AM 44.6 °F 42.2 °F 41.0 °F 87% 30.01 in 10.0 mi ENE 4.6 mph - 0.11 in Rain Heavy Rain
7:32 AM 46.4 °F 44.3 °F 41.0 °F 81% 30.02 in 7.0 mi NE 4.6 mph - 0.30 in Rain Heavy Rain
7:51 AM 46.4 °F 45.2 °F 41.0 °F 81% 30.02 in 10.0 mi NE 3.5 mph - 0.37 in Rain Light Rain
8:11 AM 46.4 °F 44.3 °F 41.0 °F 81% 30.01 in 10.0 mi NE 4.6 mph - N/A   Overcast
8:31 AM 46.4 °F 45.2 °F 41.0 °F 81% 30.00 in 10.0 mi ENE 3.5 mph - N/A   Overcast
8:51 AM 46.4 °F 45.2 °F 41.0 °F 81% 29.99 in 10.0 mi ENE 3.5 mph - N/A   Overcast
9:12 AM 46.4 °F 42.9 °F 41.0 °F 81% 29.99 in 7.0 mi NE 6.9 mph - N/A   Overcast
9:31 AM 46.4 °F 43.5 °F 41.0 °F 81% 29.99 in 7.0 mi ENE 5.8 mph - N/A Rain Light Rain
9:51 AM 46.4 °F 45.2 °F 42.8 °F 87% 30.00 in 7.0 mi ENE 3.5 mph - N/A   Light Drizzle
10:12 AM 46.4 °F 42.9 °F 42.8 °F 87% 29.98 in 3.0 mi ENE 6.9 mph - N/A   Haze
10:31 AM 48.2 °F - 42.8 °F 82% 29.98 in 1.8 mi ENE 6.9 mph - N/A   Haze
10:51 AM 48.2 °F - 42.8 °F 82% 29.98 in 1.0 mi ENE 5.8 mph - N/A   Haze
11:11 AM 48.2 °F - 44.6 °F 87% 29.99 in 1.0 mi ENE 6.9 mph - N/A   Overcast
11:31 AM 48.2 °F - 44.6 °F 87% 29.98 in 0.8 mi ENE 6.9 mph - N/A   Haze
11:51 AM 50.0 °F - 44.6 °F 82% 29.97 in 1.0 mi ENE 4.6 mph - N/A   Light Drizzle
12:11 PM 50.0 °F - 44.6 °F 82% 29.96 in 1.0 mi ENE 5.8 mph - N/A   Light Drizzle
12:31 PM 50.0 °F - 44.6 °F 82% 29.95 in 2.0 mi NE 6.9 mph - N/A   Light Drizzle
12:51 PM 50.0 °F - 44.6 °F 82% 29.95 in 2.5 mi NE 5.8 mph - N/A   Light Drizzle
1:11 PM 50.0 °F - 44.6 °F 82% 29.94 in 1.8 mi ENE 5.8 mph - N/A   Drizzle
1:31 PM 50.0 °F - 44.6 °F 82% 29.94 in 1.0 mi NE 6.9 mph - N/A   Drizzle
1:51 PM 50.0 °F - 44.6 °F 82% 29.93 in 1.5 mi NE 6.9 mph - 0.01 in   Heavy Drizzle
2:11 PM 50.0 °F - 44.6 °F 82% 29.94 in 4.0 mi ENE 4.6 mph - N/A   Haze
2:31 PM 50.0 °F - 44.6 °F 82% 29.92 in 3.0 mi NE 5.8 mph - 0.02 in   Haze
2:51 PM 50.0 °F - 44.6 °F 82% 29.94 in 5.0 mi NE 5.8 mph - 0.02 in   Haze
3:11 PM 50.0 °F - 44.6 °F 82% 29.93 in 7.0 mi NE 5.8 mph - N/A   Overcast
3:31 PM 51.8 °F - 46.4 °F 82% 29.92 in 5.0 mi NE 8.1 mph - N/A   Haze
3:51 PM 51.8 °F - 46.4 °F 82% 29.92 in 7.0 mi ENE 8.1 mph - N/A   Overcast
4:11 PM 51.8 °F - 46.4 °F 82% 29.93 in 4.0 mi ENE 9.2 mph - N/A   Haze
4:31 PM 51.8 °F - 48.2 °F 88% 29.92 in 4.0 mi ENE 9.2 mph - N/A   Overcast
4:51 PM 51.8 °F - 46.4 °F 82% 29.92 in 2.0 mi NE 6.9 mph - N/A   Haze
5:11 PM 51.8 °F - 46.4 °F 82% 29.92 in 2.5 mi NE 5.8 mph - N/A   Haze
5:31 PM 51.8 °F - 46.4 °F 82% 29.92 in 4.0 mi NE 5.8 mph - N/A   Haze
5:51 PM 51.8 °F - 46.4 °F 82% 29.92 in 4.0 mi NE 5.8 mph - N/A   Haze
6:11 PM 51.8 °F - 46.4 °F 82% 29.91 in 5.0 mi NE 6.9 mph - N/A   Haze
6:31 PM 51.8 °F - 46.4 °F 82% 29.91 in 5.0 mi NE 5.8 mph - N/A   Haze
6:51 PM 53.6 °F - 48.2 °F 82% 29.91 in 7.0 mi NE 3.5 mph - N/A   Overcast
7:11 PM 51.8 °F - 48.2 °F 88% 29.91 in 7.0 mi NE 4.6 mph - N/A   Overcast
7:31 PM 51.8 °F - 48.2 °F 88% 29.91 in 7.0 mi NE 5.8 mph - N/A   Overcast
7:51 PM 51.8 °F - 46.4 °F 82% 29.91 in 5.0 mi NNE 6.9 mph - N/A   Haze
8:11 PM 51.8 °F - 46.4 °F 82% 29.90 in 5.0 mi NE 3.5 mph - N/A   Haze
8:31 PM 51.8 °F - 46.4 °F 82% 29.90 in 5.0 mi NE 3.5 mph - N/A   Haze
8:51 PM 51.8 °F - 46.4 °F 82% 29.90 in 5.0 mi ENE 4.6 mph - N/A   Haze
9:11 PM 51.8 °F - 46.4 °F 82% 29.90 in 3.0 mi ENE 5.8 mph - N/A   Haze
9:31 PM 51.8 °F - 46.4 °F 82% 29.90 in 2.5 mi Calm Calm - N/A   Haze
9:51 PM 50.0 °F - 44.6 °F 82% 29.89 in 3.0 mi ENE 4.6 mph - N/A   Haze
10:11 PM 50.0 °F - 44.6 °F 82% 29.89 in 4.0 mi NE 4.6 mph - N/A   Haze
10:31 PM 50.0 °F - 44.6 °F 82% 29.89 in 5.0 mi NE 4.6 mph - N/A   Haze
10:51 PM 50.0 °F - 46.4 °F 87% 29.88 in 5.0 mi NE 4.6 mph - N/A   Overcast
11:11 PM 51.8 °F - 46.4 °F 82% 29.87 in 5.0 mi Calm Calm - N/A   Haze
11:31 PM 51.8 °F - 46.4 °F 82% 29.87 in 5.0 mi NNE 3.5 mph - N/A   Haze
11:51 PM 51.8 °F - 46.4 °F 82% 29.87 in 7.0 mi NE 4.6 mph - N/A Thunderstorm Overcast